User: anonymous   Login
Location: Berua Church
(35.0423°N, 88.5987°W)
Time: 13:24:14
(UTC+00:00)
Language:

YAOGAN 6 - Orbit

View from above orbital plane
View from above orbital plane
View from above satellite
View from above satellite

Ground track
Ground track

The orbit data is extracted from the following two-line orbital elements,

1 34839U 09021A   20056.47791713  .00000512  00000-0  21783-4 0  9994
2 34839  97.0421  71.2645 0029566  65.4276 295.0040 15.26810501602574
Epoch (UTC): 25 February 2020 11:28:12
Eccentricity: 0.0029566
inclination: 97.0421°
perigee height: 465 km
apogee height: 505 km
right ascension of ascending node: 71.2645°
argument of perigee: 65.4276°
revolutions per day: 15.26810501
mean anomaly at epoch: 295.0040°
orbit number at epoch: 60257

The dashed part of the orbit path shows where the satellite is in the earth's shadow,  

DLR